Lid_Strength_Index
0 1 1 4 9 8 10 8 6 6 6 5 5 6 7 5 7 10 1 1 0 0 -0 -0 -0 -0 -1 -1 -1 -1 -1 -1 -1 -1 -1 -1 -1 -1 -1 -1 -1 -1 -1 -1 -1 -1 -1 -1 -1
2 2 4 6 10 11 10 7 7 6 5 4 5 6 6 6 3 3 2 0 0 0 -0 -0 -0 -0 -1 -1 -1 -1 -1 -1 -1 -1 -1 -1 -1 -1 -1 -1 -1 -1 -1 -1 -1 -1 -1 -1 -1
2 3 6 8 10 11 10 7 6 5 5 5 5 4 5 5 3 3 1 0 0 0 -0 -0 -0 -0 -1 -1 -1 -1 -1 -1 -1 -1 -1 -1 -1 -1 -1 -1 -1 -1 -1 -1 -1 -1 -1 -1 -1
3 3 5 9 10 9 8 7 5 5 5 5 5 6 3 2 2 1 0 0 0 0 -0 -0 -0 -0 -0 -1 -1 -1 -1 -1 -1 -1 -1 -1 -1 -1 -1 -1 -1 -1 -1 -1 -1 -1 -1 -1 -1
4 5 8 9 9 7 6 6 6 7 6 6 6 7 5 2 1 1 1 0 1 1 0 -0 -0 -0 -1 -1 -1 -1 -1 -1 -1 -1 -1 -1 -1 -1 -1 -1 -1 -1 -1 -1 -1 -1 -1 -1 -1
7 6 10 10 8 6 5 4 5 6 6 6 6 7 5 3 2 1 0 1 0 1 0 -0 -1 -0 -0 -1 -1 -1 -1 -1 -1 -1 -1 -1 -1 -1 -1 -1 -1 -1 -1 -1 -1 -1 -1 -2 -2
7 8 9 9 9 8 6 4 5 6 5 5 4 6 4 4 4 2 0 0 0 0 0 -0 -0 -1 -1 -0 -0 -0 -0 -1 -1 -1 -1 -1 -1 -1 -1 -1 -1 -1 -1 -1 -1 -1 -1 -1 -2
6 7 9 9 9 8 5 5 5 6 6 3 4 6 5 3 3 3 1 1 0 0 0 0 0 -0 -0 -0 -1 -1 -1 -1 -1 -1 -1 -1 -1 -1 -1 -1 -1 -1 -1 -1 -1 -1 -1 -2 -2
5 9 10 9 8 7 5 5 4 4 6 5 5 5 3 3 3 3 1 1 1 1 1 0 0 -0 -0 -0 -1 -1 -1 -1 -1 -1 -1 -0 -1 -1 -1 -1 -1 -1 -1 -1 -1 -1 -2 -2 -2
7 9 9 7 7 8 6 6 6 7 7 6 5 4 4 3 3 4 3 2 2 2 1 0 0 0 -0 -0 -0 -1 -1 -0 -1 -1 -1 -0 -1 -1 -1 -1 -1 -1 -1 -1 -1 -2 -2 -1 -0
7 8 7 7 6 6 7 7 6 7 8 6 7 5 4 4 3 4 4 3 2 2 1 1 0 0 0 0 -0 -0 -0 -0 -0 -1 -1 -1 -1 -1 -0 -0 -1 -1 -1 -0 -1 -1 -0 -0 -0
8 6 6 6 6 6 7 6 7 7 7 5 5 5 5 4 4 4 3 3 2 1 1 1 0 0 0 0 0 -0 0 -0 -0 -0 -1 -0 0 0 -0 -0 -0 -0 -0 -0 -0 -0 -0 -0 -1
7 6 6 5 5 6 5 7 7 7 5 5 5 5 5 5 4 4 3 2 0 -1 -0 1 0 0 0 0 0 0 0 0 -0 -0 -0 -0 -0 0 -0 -0 -0 -0 -0 -0 -0 -0 0 0 -0
6 6 6 5 5 5 6 6 6 6 4 4 5 5 5 5 4 3 3 2 1 0 -0 0 1 0 0 0 0 0 0 -0 -0 -0 -0 -1 -0 0 0 0 -0 -0 -0 -1 -0 0 0 0 0
5 7 6 5 5 5 4 7 6 4 3 4 4 5 5 4 4 4 3 2 1 1 0 0 1 0 0 0 0 0 0 -0 0 -0 -0 -1 -0 -0 -0 0 0 -0 -1 -1 -0 0 -0 0 0
6 6 9 6 5 5 6 9 6 4 4 4 4 4 4 4 4 3 2 1 1 1 1 1 0 1 0 1 0 0 0 0 0 -0 -0 -0 -1 -1 -0 0 0 -0 -0 -0 0 0 1 1 1
7 10 9 8 5 6 7 8 5 4 4 5 4 4 4 3 2 2 1 1 1 0 0 1 0 0 1 0 1 0 0 0 0 -0 -0 -0 -0 -1 -0 0 0 -0 0 0 0 1 1 1 1
10 10 9 9 7 6 7 7 6 5 5 5 4 4 4 4 3 2 1 1 1 0 0 0 1 0 0 0 0 1 1 1 0 0 0 -0 -0 -0 -0 -0 0 -0 0 1 1 1 1 1 1
8 9 9 8 6 7 8 7 7 5 5 5 5 4 4 4 2 2 1 1 1 0 1 1 1 -0 1 1 2 2 2 1 1 1 0 0 -0 -0 0 0 0 0 1 1 1 1 1 2 1
8 9 9 8 6 7 8 8 6 6 5 5 5 5 4 4 3 2 2 2 1 1 1 1 1 1 1 1 1 1 1 1 1 1 0 -0 -0 -0 0 0 0 0 1 1 1 1 2 2 1
8 9 9 9 7 7 8 9 8 6 5 5 4 4 4 4 3 3 2 2 2 2 1 1 1 1 1 1 1 1 1 1 2 1 1 0 0 -0 -0 0 0 0 0 1 1 1 1 3 2
10 7 8 8 9 12 8 13 9 7 7 6 6 4 4 3 3 3 2 2 2 2 1 1 1 1 1 1 1 2 3 3 2 2 1 1 0 0 -0 0 0 0 0 1 1 1 1 1 3
9 7 8 8 9 10 10 12 10 7 8 7 5 5 4 3 3 3 2 2 2 1 1 1 1 1 1 1 1 2 2 2 1 1 1 1 1 0 0 0 0 0 1 1 1 1 1 2 2
6 7 8 8 9 14 11 13 11 10 9 8 7 5 4 4 3 3 2 1 1 1 1 1 1 1 1 1 1 1 2 2 2 2 2 2 1 1 0 0 0 0 1 2 2 1 1 1 2
7 9 15 16 15 17 13 14 14 9 8 7 7 5 4 4 3 3 3 2 2 2 1 1 1 2 1 1 1 1 2 2 2 2 2 2 2 1 1 0 1 2 3 2 1 3 3 3 4
8 9 14 19 17 14 10 15 12 7 6 5 5 4 4 4 3 3 3 2 2 1 1 1 1 2 1 1 1 1 1 1 2 1 1 2 2 1 0 2 3 3 3 3 3 4 4 4 4
9 11 8 14 13 16 13 10 8 7 8 6 5 5 4 4 3 3 3 2 2 2 2 2 2 2 0 0 1 1 1 1 2 1 1 1 1 2 3 2 3 3 4 4 5 5 5 4 4
8 7 13 14 21 20 14 13 15 12 10 8 6 6 5 4 4 3 3 3 2 1 1 1 1 1 1 1 1 1 1 1 1 1 1 1 2 2 4 4 4 5 5 5 5 4 4 4 5
9 10 10 11 14 18 18 14 9 10 10 8 6 6 6 5 4 4 3 2 2 2 1 1 1 1 1 1 1 1 1 1 1 1 1 3 2 2 4 5 6 6 5 4 5 5 5 6 5
7 9 10 16 16 14 16 16 7 7 7 8 7 6 5 4 4 3 3 2 2 2 2 1 1 1 0 1 1 1 1 1 1 1 1 3 3 3 4 6 6 6 6 5 5 6 6 7 7